[[{"header":{"parameterUnit":"m.s-1","parameterCategory":1,"la1":30.2991,"la2":30.254,"lo1":-89.0895,"lo2":-89.0444,"dy":0.0017,"dx":0.0017,"nx":28,"ny":28,"refTime":"2024-07-17T09:00:00:Z","depth":0,"parameterNumber":2,"parameterNumberName":"U-component_of_WINDS"},"data":[0,0,0,0,0,0,0,0,0,0,0,0,0,0,0,0,0,0,0,0,0,0,0,0,0,0,0,0,0,0,0,0,0,0,0,0,0,0,0,0,0,0,0,0,0,0,0,0,0,0,0,0,0,0,0,0,0,0,2.3678,2.3678,0,2.3668,2.3668,2.3668,2.3574,2.3572,2.3569,2.3567,2.3557,2.3559,2.3561,0,0,0,0,0,0,0,0,0,0,0,0,0,2.3615,2.3617,2.3678,2.3678,2.3678,2.3668,2.3668,2.3668,2.3575,2.3572,2.3569,2.3566,2.3557,2.3559,2.3561,0,0,0,0,0,0,0,0,0,0,0,0,0,2.3628,2.3618,2.3678,2.363,2.3626,2.3668,2.3668,2.3668,2.3575,2.3572,2.3568,2.3565,2.3556,2.3559,2.3562,2.3649,0,0,2.357,2.3572,0,0,0,0,0,0,0,0,2.3627,2.363,2.3637,2.3633,2.3629,2.3619,2.3642,2.3662,2.3576,2.3594,2.3567,2.3563,2.3581,2.3581,2.3587,2.3649,2.3649,2.3571,2.3572,2.3574,2.3574,0,0,0,0,0,0,0,2.3626,2.363,2.3674,2.3637,2.3632,2.3609,2.3607,2.3645,2.3607,2.3592,2.3586,2.3586,2.3578,2.3585,2.3586,2.3648,2.3571,2.3573,2.3575,2.3576,2.378,2.3783,0,0,0,0,0,0,2.3632,2.363,2.3674,2.3674,2.3619,2.3613,2.361,2.3625,2.3607,2.36,2.3589,2.3581,2.3581,2.3583,2.3586,2.3685,2.3574,2.3576,2.3578,2.3776,2.378,2.3784,0,0,0,0,0,0,2.3631,2.3637,2.3675,2.365,2.3653,2.3618,2.3635,2.3627,2.3634,2.3604,2.3596,2.3603,2.3579,2.3581,2.3634,2.3683,2.3578,2.358,2.3772,2.3777,2.3782,2.3886,0,0,0,0,0,0,2.363,2.3637,2.3671,2.3651,2.3655,2.3724,2.3638,2.3629,2.3639,2.3629,2.3615,2.3609,2.3576,2.363,2.3637,2.3685,2.3582,2.3767,2.3774,2.3781,2.3878,2.3895,2.3909,0,0,0,0,0,2.3628,2.3701,2.3673,2.3679,2.3695,2.3727,2.3728,2.3689,2.3644,2.3676,2.3657,2.361,2.3678,2.3636,2.3643,2.3693,2.3764,2.3772,2.378,2.3871,2.3891,2.3908,0,0,0,0,0,0,2.3727,2.3697,2.3666,2.3735,2.3734,2.3711,2.3751,2.3712,2.3724,2.3714,2.3664,2.3662,2.3721,2.3713,2.3667,2.3776,2.3712,2.3722,2.3779,2.3798,2.3813,2.3813,2.3585,0,0,0,0,0,2.3757,2.3785,2.3757,2.3821,2.3822,2.3787,2.3799,2.3768,2.3765,2.3764,2.3749,2.3748,2.3768,2.3783,2.3801,2.3877,2.3872,2.3915,2.393,2.3943,2.3952,2.399,2.4008,2.3812,2.3812,2.3811,0,0,2.3819,2.3806,2.3827,2.384,2.3836,2.3865,2.3787,2.3822,2.3843,2.377,2.3817,2.3806,2.3802,2.3866,2.3893,2.3861,2.4005,2.3954,2.3964,2.3966,2.4,2.4019,2.4035,2.3817,2.3816,2.3815,0,0,2.3946,2.394,2.399,2.3988,2.3982,2.3958,2.3971,2.3953,2.3943,2.399,2.3935,2.396,2.3997,2.3995,2.4,2.4126,2.4082,2.4133,2.4212,2.4249,2.4265,2.4278,2.4321,2.4338,2.4142,2.4142,2.4143,0,2.4023,2.4065,2.4022,2.4059,2.4066,2.4002,2.4052,2.4052,2.4053,2.4058,2.4022,2.4066,2.4059,2.4121,2.4151,2.4158,2.4169,2.4133,2.4266,2.4279,2.4291,2.4331,2.4348,2.4148,2.4148,2.4147,2.4147,0,2.4159,2.4189,2.4231,2.4232,2.4244,2.4289,2.4251,2.4269,2.4237,2.4217,2.4266,2.4255,2.4268,2.4281,2.4251,2.4338,2.4318,2.4275,2.4209,2.4317,2.4353,2.4369,2.4157,2.4155,2.4153,2.4152,0,0,2.4347,2.4324,2.4339,2.4338,2.4327,2.4349,2.4391,2.4403,2.4418,2.4421,2.4453,2.4486,2.4446,2.4451,2.442,2.4454,2.4551,2.4406,2.4405,2.4431,2.4645,2.4676,2.4694,2.4524,2.4526,2.4529,2.4644,0,2.4467,2.4535,2.4497,2.457,2.4596,2.4535,2.4571,2.4568,2.4551,2.457,2.4551,2.4574,2.452,2.4522,2.4553,2.4533,2.4593,2.4525,2.4552,2.4553,2.4552,2.4714,2.4747,2.4857,2.4659,2.4661,2.4663,0,2.4616,2.4624,2.47,2.4682,2.4692,2.4724,2.4732,2.4752,2.4747,2.4732,2.4737,2.4699,2.4737,2.4674,2.4726,2.468,2.4689,2.4681,2.4684,2.4683,2.4613,2.4715,2.4891,2.4907,2.4686,2.4684,2.4682,0,2.4743,2.4773,2.4821,2.4823,2.4804,2.4828,2.4821,2.4813,2.4823,2.483,2.4835,2.4848,2.4854,2.4864,2.4829,2.4787,2.4885,2.482,2.4873,2.4874,2.4894,2.4893,2.5071,2.4904,2.4904,2.4904,2.4904,0,2.4879,2.4927,2.4877,2.4907,2.4959,2.4915,2.4967,2.4954,2.4947,2.4973,2.4922,2.4947,2.4901,2.4922,2.4895,2.4941,2.4945,2.4933,2.4925,2.4936,2.4937,2.494,2.493,2.4908,2.4907,2.4906,2.4906,0,2.5028,2.4997,2.5045,2.5023,2.5019,2.5058,2.5039,2.5065,2.5045,2.5078,2.5083,2.5051,2.5072,2.5039,2.5057,2.5039,2.5102,2.5084,2.5103,2.5097,2.5151,2.5146,2.5335,2.5357,2.5179,2.5181,2.5182,0,2.5116,2.5151,2.5133,2.5146,2.5142,2.5165,2.5174,2.5133,2.5144,2.5141,2.5168,2.5185,2.5196,2.5233,2.5211,2.5225,2.5205,2.527,2.5206,2.5216,2.5203,2.52,2.5203,2.5283,2.5285,2.5287,2.5288,0,2.5275,2.5257,2.5272,2.5282,2.5294,2.53,2.5302,2.5316,2.5273,2.5288,2.5309,2.5318,2.5336,2.5353,2.5361,2.5354,2.5314,2.5309,2.5321,2.5332,2.5341,2.5334,2.5137,2.5304,2.5302,2.5301,2.53,2.53,2.5394,2.5421,2.5412,2.5431,2.5428,2.5431,2.5454,2.5436,2.5452,2.5463,2.5438,2.5465,2.5459,2.5465,2.5462,2.5483,2.5454,2.5473,2.5477,2.5482,2.5489,2.534,2.5484,2.5484,2.5483,2.5483,2.5483,0,2.5547,2.5539,2.5556,2.556,2.5574,2.5535,2.5535,2.555,2.5574,2.5571,2.5583,2.5607,2.5623,2.5603,2.5615,2.5636,2.5617,2.564,2.5637,2.5636,2.5515,2.5502,2.5655,2.5655,2.5655,2.5655,2.5654,2.5654,2.5629,2.5673,2.5655,2.5697,2.5687,2.5713,2.5716,2.5718,2.5715,2.5744,2.5757,2.5744,2.5734,2.5745,2.5758,2.5752,2.5758,2.5787,2.5774,2.5661,2.5644,2.5628,2.5615,2.5789,2.579,2.5892,2.5893,2.5894]},{"header":{"parameterUnit":"m.s-1","parameterCategory":1,"la1":30.2991,"la2":30.254,"lo1":-89.0895,"lo2":-89.0444,"dy":0.0017,"dx":0.0017,"nx":28,"ny":28,"refTime":"2024-07-17T09:00:00:Z","depth":0,"parameterNumber":3,"parameterNumberName":"V-component_of_WINDS"},"data":[0,0,0,0,0,0,0,0,0,0,0,0,0,0,0,0,0,0,0,0,0,0,0,0,0,0,0,0,0,0,0,0,0,0,0,0,0,0,0,0,0,0,0,0,0,0,0,0,0,0,0,0,0,0,0,0,0,0,4.1347,4.1349,0,4.1484,4.1486,4.1488,4.1446,4.1443,4.144,4.1437,4.158,4.1586,4.1592,0,0,0,0,0,0,0,0,0,0,0,0,0,4.105,4.1055,4.1347,4.1349,4.135,4.1484,4.1486,4.1488,4.1446,4.1443,4.1439,4.1436,4.1577,4.1585,4.1593,0,0,0,0,0,0,0,0,0,0,0,0,0,4.1182,4.1057,4.1347,4.1346,4.1347,4.1484,4.1486,4.1488,4.1447,4.1443,4.1439,4.1435,4.1575,4.1584,4.1594,4.174,0,0,4.1624,4.1628,0,0,0,0,0,0,0,0,4.1175,4.1193,4.1344,4.1346,4.1348,4.1444,4.1433,4.1573,4.1448,4.1409,4.1437,4.1432,4.1538,4.155,4.1586,4.1747,4.1753,4.1624,4.163,4.1634,4.1637,0,0,0,0,0,0,0,4.1166,4.1187,4.1401,4.1346,4.1349,4.1339,4.1353,4.146,4.1496,4.1412,4.141,4.1426,4.1538,4.1576,4.1589,4.1755,4.1624,4.1633,4.1639,4.1643,4.2043,4.2047,0,0,0,0,0,0,4.1155,4.118,4.1397,4.1405,4.1249,4.1348,4.1363,4.1417,4.1495,4.1503,4.143,4.1424,4.1562,4.1577,4.1594,4.1769,4.1634,4.1643,4.1649,4.2038,4.2044,4.2049,0,0,0,0,0,0,4.1149,4.1175,4.1391,4.1292,4.1319,4.1357,4.1418,4.1422,4.146,4.1508,4.1515,4.1462,4.1559,4.158,4.1704,4.1774,4.1648,4.1657,4.2032,4.204,4.2046,4.2122,0,0,0,0,0,0,4.1141,4.1173,4.1229,4.1293,4.1324,4.1499,4.1423,4.1428,4.1477,4.1471,4.154,4.1548,4.1557,4.169,4.1713,4.1785,4.1664,4.2026,4.2036,4.2044,4.2114,4.2131,4.2146,0,0,0,0,0,4.113,4.1245,4.1232,4.1258,4.1395,4.1503,4.1521,4.1529,4.1483,4.1539,4.157,4.1545,4.1762,4.1703,4.1729,4.1804,4.2022,4.2033,4.2043,4.2106,4.2128,4.2146,0,0,0,0,0,0,4.1188,4.1253,4.1239,4.1379,4.1436,4.1496,4.1567,4.1552,4.1624,4.1615,4.1622,4.1639,4.1765,4.1798,4.173,4.195,4.1885,4.1902,4.1924,4.1945,4.1961,4.195,4.1672,0,0,0,0,0,4.1217,4.1299,4.1352,4.147,4.1499,4.1529,4.1576,4.1578,4.1637,4.1661,4.1701,4.176,4.1842,4.1895,4.1973,4.2118,4.2133,4.2183,4.2199,4.2213,4.2227,4.2306,4.2328,4.2084,4.2084,4.2084,0,0,4.1277,4.1323,4.1375,4.1483,4.1527,4.1612,4.1549,4.1642,4.1706,4.1676,4.1795,4.1826,4.1893,4.2028,4.209,4.2059,4.2297,4.2226,4.2236,4.2244,4.2319,4.2342,4.2363,4.2092,4.209,4.2089,0,0,4.1431,4.1474,4.1577,4.1622,4.169,4.1709,4.1734,4.1797,4.1816,4.1936,4.1915,4.1991,4.2131,4.2179,4.2222,4.2394,4.2374,4.2419,4.2504,4.2581,4.26,4.2617,4.2678,4.2699,4.2433,4.2434,4.2434,0,4.1498,4.1625,4.1631,4.1726,4.1774,4.1751,4.1854,4.1899,4.1989,4.2022,4.1986,4.2162,4.2205,4.2351,4.2393,4.2428,4.2457,4.2411,4.2596,4.2614,4.263,4.2688,4.2711,4.2438,4.2438,4.2437,4.2437,0,4.1703,4.1792,4.1867,4.1953,4.201,4.2109,4.213,4.2187,4.2184,4.2207,4.2329,4.238,4.2467,4.2502,4.25,4.2648,4.2627,4.2594,4.2529,4.2658,4.2712,4.2735,4.2446,4.2444,4.2442,4.2441,0,0,4.1897,4.1985,4.2013,4.2051,4.2124,4.2193,4.2291,4.2376,4.2424,4.2487,4.2569,4.2689,4.2659,4.2707,4.2711,4.2779,4.2911,4.2737,4.2739,4.2767,4.3076,4.31,4.3126,4.2899,4.2903,4.2906,4.3071,0,4.2055,4.2227,4.2236,4.2391,4.2473,4.2452,4.2538,4.2592,4.2616,4.2689,4.2716,4.28,4.2754,4.2784,4.285,4.2881,4.2973,4.2869,4.2975,4.2979,4.2958,4.3154,4.318,4.3332,4.3092,4.3096,4.3098,0,4.2264,4.2332,4.2496,4.2557,4.2592,4.2668,4.2746,4.2817,4.2878,4.2891,4.2945,4.2939,4.304,4.2972,4.3111,4.3041,4.3085,4.3107,4.3113,4.3122,4.3046,4.3168,4.3381,4.3403,4.3132,4.3129,4.3127,0,4.2387,4.2521,4.2635,4.267,4.2744,4.2798,4.2832,4.2889,4.2939,4.3008,4.304,4.3121,4.3164,4.3227,4.3243,4.3192,4.3382,4.3315,4.3395,4.3395,4.3435,4.3432,4.3657,4.3465,4.3465,4.3464,4.3464,0,4.2563,4.2664,4.2692,4.2762,4.2875,4.2884,4.2996,4.3026,4.3077,4.3153,4.3141,4.3213,4.323,4.3306,4.3319,4.3432,4.3452,4.3465,4.3467,4.3466,4.3464,4.3494,4.3484,4.347,4.3469,4.3468,4.3467,0,4.2719,4.2742,4.2866,4.2926,4.2943,4.3024,4.3075,4.3143,4.3166,4.3263,4.3286,4.3322,4.341,4.3433,4.3539,4.3547,4.3681,4.3673,4.366,4.3659,4.3737,4.3729,4.3988,4.4023,4.3809,4.3811,4.3813,0,4.283,4.2906,4.2975,4.3024,4.306,4.3141,4.3192,4.3205,4.3259,4.3334,4.3393,4.348,4.355,4.3693,4.3729,4.381,4.3804,4.3889,4.3816,4.3812,4.3804,4.3799,4.3807,4.3903,4.3905,4.3907,4.3908,0,4.3023,4.303,4.3104,4.3182,4.3243,4.3305,4.3364,4.3406,4.3427,4.3489,4.3578,4.3633,4.3741,4.3827,4.3909,4.3944,4.393,4.3931,4.3954,4.3952,4.3941,4.3948,4.3697,4.3925,4.3923,4.3922,4.3921,4.392,4.3159,4.3226,4.3284,4.3367,4.3413,4.3468,4.3535,4.3566,4.3641,4.3729,4.3732,4.383,4.389,4.3998,4.4038,4.4115,4.4089,4.4122,4.413,4.4138,4.4144,4.3929,4.413,4.4129,4.4129,4.4129,4.4128,0,4.335,4.3387,4.3463,4.3546,4.3611,4.3591,4.3656,4.3712,4.3798,4.3854,4.3923,4.4027,4.4111,4.4153,4.4237,4.429,4.4286,4.4312,4.4307,4.4316,4.4163,4.4135,4.4314,4.4314,4.4314,4.4314,4.4314,4.4313,4.3458,4.357,4.3584,4.3719,4.3755,4.385,4.3889,4.394,4.3985,4.4101,4.417,4.4197,4.4248,4.4335,4.4412,4.4422,4.4453,4.4482,4.4489,4.4346,4.4327,4.4309,4.4282,4.4489,4.4489,4.4636,4.4637,4.4638]}]]